Regional Weather Roundup
Issued by NWS

Home | Current Version | Previous Version | Text Only | Print | Product List | Glossary Off
Versions: 1 2 3 4 5 6 7 8 9 10 11 12 13 14 15 16 17 18 19 20 21 22 23 24 25 26 27 28 29 30 31 32 33 34 35 36 37 38 39 40 41 42 43 44 45 46 47 48 49 50

000
ASUS43 KLSX 261407
RWRMO

WEATHER SUMMARY FOR MISSOURI
NATIONAL WEATHER SERVICE SPRINGFIELD MO
900 AM CDT THU APR 26 2018

NOTE: "FAIR" INDICATES FEW OR NO CLOUDS BELOW 12,000 FEET WITH NO
       SIGNIFICANT WEATHER AND/OR OBSTRUCTIONS TO VISIBILITY.
       CURRENT SKY AND/OR WEATHER CONDITIONS ARE NOT AVAILABLE FOR
       CHILLICOTHE AND FARMINGTON.

MOZ001>031-035>038-043-044-053-054-261500-
...NORTHERN AND WESTERN MISSOURI...

CITY           SKY/WX    TMP DP  RH WIND       PRES   REMARKS
KANSAS CTY INT CLOUDY    48  42  80 NW7       30.02R
KANSAS C DTWN  MOSUNNY   49  42  77 CALM      30.02S
LEE`S SUMMIT   MOSUNNY   49  45  86 NW6       30.02S
ST JOSEPH      CLOUDY    44  42  93 S5        30.02F
CHILLICOTHE      N/A     51  40  65 VRB3      30.01S
KIRKSVILLE     SUNNY     55  41  59 NW5       29.99R

$$
MOZ066>068-077>081-088>096-101>105-261500-
...SOUTHWEST MISSOURI...

CITY           SKY/WX    TMP DP  RH WIND       PRES   REMARKS
SPRINGFIELD    CLOUDY    49  46  90 N9        30.00R FOG
JOPLIN         CLOUDY    50  47  89 N7        30.03R
BRANSON        CLOUDY    48  48 100 NW9       29.99R FOG

$$
MOZ032>034-039>042-045>050-055>058-069>072-261500-
...CENTRAL MISSOURI...

CITY           SKY/WX    TMP DP  RH WIND       PRES   REMARKS
COLUMBIA       CLOUDY    50  44  80 N7        30.00R
JEFFERSON CITY MOSUNNY   52  46  80 VRB3      30.00R
ROLLA          CLOUDY    49  45  86 CALM      29.98R
SEDALIA        SUNNY     52  46  80 N5        30.02R
WHITEMAN AFB   MOSUNNY   49  49  99 NW5       29.98R
WARRENSBURG    CLOUDY    48  43  81 NW3       30.03R
OSAGE BEACH    CLOUDY    51  48  89 CALM      30.01R

$$
MOZ051-052-059>065-261500-
...EAST CENTRAL MISSOURI...

CITY           SKY/WX    TMP DP  RH WIND       PRES   REMARKS
ST LOUIS INTL  NOT AVBL
SPIRIT OF STL  SUNNY     56  45  66 E5        29.96S
ST CHARLES     MOSUNNY   57  39  51 SE9       29.97S

$$
MOZ072>076-082>087-097>100-106>115-261500-
...SOUTH CENTRAL AND SOUTHEAST MISSOURI...

CITY           SKY/WX    TMP DP  RH WIND       PRES   REMARKS
CAPE GIRARDEAU CLOUDY    55  46  71 NE7       29.91R
FARMINGTON     CLOUDY    51  48  89 N8        29.96R
POPLAR BLUFF   CLOUDY    57  53  86 NE10      29.91R
WEST PLAINS    PTSUNNY   52  47  83 N12       29.96R

$$




USA.gov is the U.S. government's official web portal to all federal, state and local government web resources and services.